Current Version              Previous Version:    01  02  03  04  05  06  07  08  09  10  11  12  13  14  15  16  17  18  19  20  21  22  23  24  25  26  27  28  29  30  
   31  32  33  34  35  36  37  38  39  40  41  42  43  44  45  46  47  48  49  50  51  52  53  54  55  56  57  58  59  60  

[Printable]
945
ASUS44 KFWD 231701
RWRTX
NORTH TEXAS HOURLY WEATHER ROUNDUP
NATIONAL WEATHER SERVICE FORT WORTH TX
1200 PM CDT WED APR 23 2014

NOTE: "FAIR" INDICATES FEW OR NO CLOUDS BELOW 12,000 FEET WITH NO
SIGNIFICANT WEATHER AND/OR OBSTRUCTIONS TO VISIBILITY.

TXZ118-119-231800-
DALLAS/FORT WORTH METROPLEX

CITY           SKY/WX    TMP DP  RH WIND       PRES   REMARKS
DFW AIRPORT    MOSUNNY   81  62  52 S14       29.90F
DALLAS LOVE    MOSUNNY   81  58  45 S15       29.91F
FTW MEACHAM    SUNNY     80  62  54 S16       29.89F
DAL-EXECUTIVE  SUNNY     81  61  50 S9G16     29.91F
FTW-ALLIANCE   MOSUNNY   79  62  56 S14G24    29.89F
FTW-NAS-JRB    MOSUNNY   82  58  43 S17       29.94F
FTW-SPINKS     MOSUNNY   81  61  50 S14G22    29.92F
ARLINGTON      MOSUNNY   81  61  50 S13G23    29.90F
GRAND PRAIRIE  SUNNY     81  59  47 SE13      29.93F
MESQUITE       MOSUNNY   81  63  54 MISG      29.92F
LANCASTER      MOSUNNY   78  62  57 S8G16     29.93F
$$

TXZ091>094-102>105-117-120-121-131>134-231800-
NORTH CENTRAL TEXAS

CITY           SKY/WX    TMP DP  RH WIND       PRES   REMARKS
SHRMAN/DENISON SUNNY     78  59  52 S14G20    29.92F
BRIDGEPORT     SUNNY     78  56  47 S15       29.91F
DENTON         MOSUNNY   78  62  57 S17       29.90F
MCKINNEY       SUNNY     80  62  54 S14       29.91F
ROCKWALL       MOSUNNY   82  63  53 SE13      29.91F
TERRELL        SUNNY     80  63  55 S15       29.93F
WAXAHACHIE     MOSUNNY   79  61  54 S12G18    29.93F
CLEBURNE       SUNNY     81  63  54 S14       29.93F
GRANBURY       SUNNY     83  58  42 SE13G18   29.89F
$$

TXZ083>090-098>101-113>116-127>130-139>142-154-155-231800-
WESTERN NORTH TEXAS

CITY           SKY/WX    TMP DP  RH WIND       PRES   REMARKS
WICHITA FALLS  MOSUNNY   80  59  48 S15G28    29.84F
ABILENE        MOSUNNY   81  59  47 S23G32    29.85F
ABILENE-DYESS  MOSUNNY   82  61  48 S22G28    29.84F
MINERAL WELLS  SUNNY     82  59  45 S15       29.87F
STEPHENVILLE   SUNNY     81  58  46 S13G18    29.92F
COMANCHE       SUNNY     82  58  44 S20G25    29.90F
$$

TXZ143>147-156>162-174-175-231800-
CENTRAL TEXAS

CITY           SKY/WX    TMP DP  RH WIND       PRES   REMARKS
WACO           SUNNY     82  63  52 S16       29.91F
WACO-MCGREGOR  SUNNY     82  61  47 S16G22    29.92F
CORSICANA      SUNNY     81  64  56 S10G18    29.94F
TEMPLE         SUNNY     81  61  50 SE20G28   29.94F
KILLEEN        MOSUNNY   82  57  42 SE17      29.90F
KILLEEN-SKYLRK SUNNY    N/A N/A N/A S14G24    29.90F
HAMILTON       SUNNY     82  56  40 S16G24    29.92F
LAMPASAS       SUNNY     82  62  50 S10G16    29.90F
$$

TXZ095>097-106>112-122>126-135>138-148>153-164>167-231800-
EAST TEXAS

CITY           SKY/WX    TMP DP  RH WIND       PRES   REMARKS
PARIS          SUNNY     79  61  53 S15       29.95F
MINEOLA        SUNNY     81  59  47 S9        29.96F
TYLER          MOSUNNY   81  58  45 S12G23    29.95F
LONGVIEW       MOSUNNY   80  59  48 SE10      29.95F
PALESTINE      MOSUNNY   79  59  49 S9        29.97S
NACOGDOCHES    MOSUNNY   79  61  53 S8        29.98F
LUFKIN         MOSUNNY   83  61  47 S10       29.97F
$$

SUPPLEMENTAL OBSERVATIONS (CENTRAL)

CITY           SKY/WX    TMP DP  RH WIND       PRES   REMARKS
$$

SUPPLEMENTAL OBSERVATIONS (WEST)

CITY           SKY/WX    TMP DP  RH WIND       PRES   REMARKS
$$

SUPPLEMENTAL OBSERVATIONS (EAST)

CITY           SKY/WX    TMP DP  RH WIND       PRES   REMARKS
$$

SUPPLEMENTAL OBSERVATIONS ARE A COLLECTION OF AUTOMATED INSTRUMENTS
THAT ARE MAINTAINED BY A VARIETY OF FEDERAL AND STATE AGENCIES.
CERTAIN ELEMENTS...SUCH AS HUMIDITY VALUES AND SUSTAINED WIND
SPEEDS...MAY BE APPROXIMATED.